Rome Ciampino, Italy

10:37 PM CEST on October 01, 2016 (GMT +0200)
Ciampino

Weather History for LIRA - September, 2013

Change the Weather History Date:

Sunday, September 1, 2013

  Actual Average Record
Temperature  
Mean Temperature 72 °F -  
Max Temperature 82 °F 81 °F 91 °F (2015)
Min Temperature 62 °F 62 °F 57 °F (1996)
Cooling Degree Days 7    
Growing Degree Days 22 (Base 50)    
Moisture  
Dew Point 62 °F    
Average Humidity 70    
Maximum Humidity 100    
Minimum Humidity 42    
Precipitation  
Precipitation 0.00 in - - ()
Sea Level Pressure  
Sea Level Pressure 30.03 in    
Wind  
Wind Speed 4 mph ()    
Max Wind Speed 12 mph    
Max Gust Speed -    
Visibility 6.2 miles    
Events      
Averages and records for this station are not official NWS values.
T = Trace of Precipitation, MM = Missing Value Source: Averaged Metar Reports

Daily Weather History Graph

Daily Weather History Graph

Search for Another Location

Airport or City:

Trip Planner

Search our weather history database for the weather conditions in past years. The results will help you decide how hot, cold, wet, or windy it might be!

Date:

Astronomy

Sep. 01, 2013 Rise Set
Actual Time 6:35 AM CEST 7:43 PM CEST
Civil Twilight 6:06 AM CEST 8:11 PM CEST
Nautical Twilight 5:32 AM CEST 8:45 PM CEST
Astronomical Twilight 4:56 AM CEST 9:21 PM CEST
Moon 2:39 AM CEST 5:11 PM CEST
Length of Visible Light 14h 04m
Length of Day
13h 07m
Waning Crescent, 15% of the Moon is Illuminated
Sep 1
Waning Crescent
Sep 5
New
Sep 12
First Quarter
Sep 19
Full
Sep 27
Last Quarter

Hourly Weather History & Observations

Time (CEST) Temp. Heat Index Dew Point Humidity Pressure Visibility Wind Dir Wind Speed Gust Speed Precip Events Conditions
12:15 AM 69.8 °F - 68.0 °F 94% 30.04 in - ESE 4.6 mph - N/A   Clear
12:45 AM 69.8 °F - 64.4 °F 83% 30.04 in - ESE 2.3 mph - N/A   Clear
1:15 AM 69.8 °F - 64.4 °F 83% 30.04 in - East 2.3 mph - N/A   Clear
1:45 AM 68.0 °F - 64.4 °F 88% 30.04 in - NE 2.3 mph - N/A   Clear
2:15 AM 68.0 °F - 64.4 °F 88% 30.04 in - NNE 3.5 mph - N/A   Clear
2:45 AM 68.0 °F - 66.2 °F 94% 30.04 in - NNE 3.5 mph - N/A   Clear
3:15 AM 66.2 °F - 66.2 °F 100% 30.04 in - NE 4.6 mph - N/A   Clear
3:45 AM 66.2 °F - 64.4 °F 94% 30.04 in - NNE 3.5 mph - N/A   Clear
4:15 AM 66.2 °F - 64.4 °F 94% 30.01 in - NE 4.6 mph - N/A   Clear
4:45 AM 66.2 °F - 64.4 °F 94% 30.01 in - North 4.6 mph - N/A   Clear
5:15 AM 66.2 °F - 64.4 °F 94% 30.01 in - North 4.6 mph - N/A   Clear
5:45 AM 64.4 °F - 64.4 °F 100% 30.01 in - NE 4.6 mph - N/A   Clear
6:15 AM 64.4 °F - 62.6 °F 94% 30.01 in - NNE 4.6 mph - N/A   Clear
6:45 AM 62.6 °F - 59.0 °F 88% 30.01 in - NNE 3.5 mph - N/A   Clear
7:15 AM 62.6 °F - 55.4 °F 77% 30.01 in - NNE 4.6 mph - N/A   Clear
7:45 AM 64.4 °F - 57.2 °F 77% 30.01 in - NNE 3.5 mph - N/A   Clear
8:15 AM 64.4 °F - 55.4 °F 73% 30.01 in - North 4.6 mph - N/A   Clear
8:45 AM 66.2 °F - 53.6 °F 64% 30.04 in - NE 3.5 mph - N/A   Clear
9:15 AM 68.0 °F - 55.4 °F 64% 30.04 in - NNE 3.5 mph - N/A   Clear
9:45 AM 69.8 °F - 57.2 °F 64% 30.04 in - North 2.3 mph - N/A   Clear
10:15 AM 71.6 °F - 59.0 °F 64% 30.04 in - NNW 2.3 mph - N/A   Clear
10:45 AM 75.2 °F - 60.8 °F 61% 30.04 in - NW 2.3 mph - N/A   Clear
11:15 AM 78.8 °F - 64.4 °F 61% 30.04 in - South 5.8 mph - N/A   Clear
11:45 AM 80.6 °F 82.3 °F 64.4 °F 58% 30.04 in 6.2 mi SSW 5.8 mph - N/A   Scattered Clouds
12:15 PM 78.8 °F - 64.4 °F 61% 30.04 in 6.2 mi SSW 5.8 mph - N/A   Scattered Clouds
12:45 PM 78.8 °F - 62.6 °F 57% 30.04 in 6.2 mi SW 6.9 mph - N/A   Mostly Cloudy
1:15 PM 78.8 °F - 59.0 °F 51% 30.04 in 6.2 mi WSW 9.2 mph - N/A   Mostly Cloudy
1:45 PM 78.8 °F - 60.8 °F 54% 30.04 in 6.2 mi NNW 5.8 mph - N/A   Mostly Cloudy
2:15 PM 77.0 °F - 64.4 °F 65% 30.04 in 6.2 mi ENE 11.5 mph - N/A   Scattered Clouds
2:45 PM 80.6 °F 82.3 °F 64.4 °F 58% 30.04 in 6.2 mi East 6.9 mph - N/A   Scattered Clouds
3:15 PM 82.4 °F 82.5 °F 59.0 °F 45% 30.04 in 6.2 mi NNW 2.3 mph - N/A   Scattered Clouds
3:45 PM 82.4 °F 82.5 °F 59.0 °F 45% 30.01 in 6.2 mi NW 5.8 mph - N/A   Scattered Clouds
4:15 PM 82.4 °F 82.9 °F 60.8 °F 48% 30.01 in 6.2 mi East 1.2 mph - N/A   Scattered Clouds
4:45 PM 82.4 °F 82.0 °F 57.2 °F 42% 30.01 in 6.2 mi SW 6.9 mph - N/A   Scattered Clouds
5:15 PM 82.4 °F 82.0 °F 57.2 °F 42% 30.01 in 6.2 mi WSW 6.9 mph - N/A   Partly Cloudy
5:45 PM 82.4 °F 82.0 °F 57.2 °F 42% 30.01 in 6.2 mi SW 5.8 mph - N/A   Partly Cloudy
6:15 PM 80.6 °F 80.8 °F 57.2 °F 45% 30.01 in 6.2 mi West 4.6 mph - N/A   Partly Cloudy
6:45 PM 80.6 °F 81.1 °F 59.0 °F 48% 30.01 in 6.2 mi SW 4.6 mph - N/A   Partly Cloudy
7:15 PM 78.8 °F - 59.0 °F 51% 30.01 in 6.2 mi SW 5.8 mph - N/A   Partly Cloudy
7:45 PM 77.0 °F - 59.0 °F 54% 30.01 in 6.2 mi SW 3.5 mph - N/A   Partly Cloudy
8:15 PM 75.2 °F - 60.8 °F 61% 30.01 in 6.2 mi SW 3.5 mph - N/A   Partly Cloudy
8:45 PM 73.4 °F - 64.4 °F 73% 30.04 in 6.2 mi SSW 3.5 mph - N/A   Partly Cloudy
9:15 PM 73.4 °F - 64.4 °F 73% 30.04 in 6.2 mi South 3.5 mph - N/A   Partly Cloudy
9:45 PM 73.4 °F - 64.4 °F 73% 30.04 in 6.2 mi SSW 1.2 mph - N/A   Partly Cloudy
10:15 PM 73.4 °F - 66.2 °F 78% 30.04 in 6.2 mi Calm Calm - N/A   Partly Cloudy
10:45 PM 71.6 °F - 64.4 °F 78% 30.06 in 6.2 mi NE 1.2 mph - N/A   Partly Cloudy
11:15 PM 69.8 °F - 64.4 °F 83% 30.06 in 6.2 mi East 1.2 mph - N/A   Partly Cloudy
11:45 PM 69.8 °F - 64.4 °F 83% 30.06 in 6.2 mi East 3.5 mph - N/A   Partly Cloudy